Flag for Germany Weather past 2 weeks in Porta Westfalica, North Rhine-Westphalia, Germany

Now
37 °F

Partly sunny.


Feels Like: 31 °F
Forecast: 32 / 35 °F
Wind: 8 mph from Southwest

Location: Bueckeburg

Current Time: Feb 1, 2015 at 2:53:04 PM

Latest Report: Feb 1, 2015 at 2:20 PM


Visibility: N/A

Pressure: 29.24 "Hg

Humidity: 75%

Dew point: 30 °F

Location of Porta WestfalicaLocation

Historic Weather in Porta Westfalica — Graph

°F

Porta Westfalica temperature yesterday

Maximum temperature yesterday: 36 °F (at 11:20 AM)
Minimum temperature yesterday: 28 °F (at 12:20 AM)
Average temperature yesterday: 33 °F

Past Weeks' High & Low Weather Summary

 TemperatureHumidityPressure
High43 °F (Jan 28, 12:20 PM)100% (Jan 20, 6:20 AM)30.33 "Hg (Jan 20, 6:20 AM)
Low27 °F (Jan 21, 7:20 AM)60% (Jan 21, 1:20 PM)28.68 "Hg (Jan 30, 2:20 AM)
Average34 °F87%29.73 "Hg
* Reported Jan 17 1:20 PM — Feb 1 1:20 PM, Porta Westfalica, Weather by CustomWeather, © 2014

Note: Actual official high and low records may vary slightly from our data, if they occured in-between our weather recording intervals... More about our weather records

Advertising

Porta Westfalica weather history for previous 24 hours

 ConditionsComfort  
Time TempWeatherWind HumidityBarometerVisibility
1:20 PM
Feb 1
36 °FPartly sunny.8 mph81%29.21 "HgN/A
12:20 PM36 °FScattered clouds.9 mph81%29.21 "HgN/A
12:00 PM36 °FPartly sunny.8 mph81%29.21 "Hg6 mi
11:20 AM34 °FPartly sunny.6 mph87%29.21 "Hg6 mi
10:55 AM34 °FPartly sunny.6 mph87%29.21 "Hg5 mi
10:20 AM34 °FPartly sunny.5 mph87%29.18 "Hg4 mi
9:20 AM34 °FPartly sunny.8 mph87%29.18 "Hg4 mi
8:20 AM34 °FPartly sunny.7 mph87%29.15 "Hg4 mi
7:53 AM32 °FPassing clouds.6 mph93%29.15 "Hg4 mi
7:20 AM32 °FPassing clouds.5 mph87%29.15 "Hg4 mi
6:51 AM32 °FPassing clouds.9 mph93%29.12 "Hg4 mi
6:20 AM34 °FPassing clouds.8 mph87%29.12 "Hg4 mi
5:20 AM34 °FPassing clouds.7 mph87%29.12 "HgN/A
4:20 AM34 °FPassing clouds.7 mph87%29.12 "HgN/A
3:20 AM34 °FPassing clouds.8 mph87%29.09 "HgN/A
2:20 AM34 °FPartly cloudy.9 mph87%29.09 "HgN/A
1:20 AM34 °FPartly cloudy.6 mph87%29.09 "HgN/A
12:20 AM32 °FPartly cloudy.7 mph93%29.09 "HgN/A
11:20 PM
Jan 31
32 °FPartly cloudy.8 mph93%29.09 "HgN/A
10:20 PM32 °FPartly cloudy.6 mph93%29.09 "HgN/A
9:20 PM30 °FPassing clouds.6 mph93%29.06 "HgN/A
8:20 PM32 °FPassing clouds.7 mph93%29.06 "HgN/A
7:20 PM32 °FPassing clouds.6 mph93%29.03 "HgN/A
6:20 PM34 °FPassing clouds.7 mph87%29.03 "HgN/A
5:20 PM34 °FPassing clouds.7 mph87%29.00 "Hg5 mi
4:20 PM34 °FPartly sunny.7 mph87%29.00 "Hg5 mi
3:20 PM36 °FPassing clouds.12 mph81%28.97 "Hg4 mi
2:20 PM36 °FScattered clouds.10 mph81%28.97 "Hg4 mi
Weather by CustomWeather, © 2014

See weather overviewHow to use our weather pages